FW2617 Weather Reports


time (UTC)temp
F
wind
direction
speed
knots
gust
knots
rain 1hr
in
rain 24hr
in
rain mn
in
humidity
%
barometer
mb
20260505180904 84 196 6.1 13.0 0.00 0.00 0.00 70 1002.7
20260505180004 83 192 7.0 16.5 0.00 0.00 0.00 70 1002.8
20260505175404 83 197 7.8 16.5 0.00 0.00 0.00 71 1002.9
20260505174525 82 194 6.1 11.3 0.00 0.00 0.00 73 1002.8
20260505173603 81 194 7.0 14.8 0.00 0.00 0.00 73 1002.6
20260505172704 81 196 7.0 14.8 0.00 0.00 0.00 73 1002.6
20260505171825 81 189 7.0 15.6 0.00 0.00 0.00 73 1002.6
20260505170903 81 184 6.1 13.0 0.00 0.00 0.00 74 1002.5
20260505170004 80 190 7.8 14.8 0.00 0.00 0.00 75 1002.6
20260505165403 80 191 7.8 14.8 0.00 0.00 0.00 75 1002.6
20260505164525 80 188 7.8 22.6 0.00 0.00 0.00 75 1002.5
20260505163604 80 192 6.1 16.5 0.00 0.00 0.00 75 1002.5
20260505162703 80 196 7.0 13.0 0.00 0.00 0.00 76 1002.7
20260505161804 79 188 7.0 17.4 0.00 0.00 0.00 76 1002.8
20260505160903 79 190 7.8 14.8 0.00 0.00 0.00 77 1002.8
20260505152704 76 187 8.7 17.4 0.00 0.00 0.00 82 1002.6
20260505151804 76 184 7.0 15.6 0.00 0.00 0.00 82 1002.6
20260505150904 76 195 7.8 19.1 0.00 0.00 0.00 83 1002.8
20260505124503 70 187 6.1 14.8 0.00 0.00 0.00 90 1002.2
20260505123624 70 179 5.2 13.9 0.00 0.00 0.00 90 1002.1
20260505122704 70 181 6.1 13.9 0.00 0.00 0.00 90 1002.0
20260505121825 70 179 5.2 12.2 0.00 0.00 0.00 90 1002.1
20260505120904 69 180 5.2 15.6 0.00 0.00 0.00 90 1001.9
20260505120024 69 177 5.2 10.4 0.00 0.00 0.00 90 1001.7
20260505115403 69 180 5.2 15.6 0.00 0.00 0.00 90 1001.8
20260505114503 69 185 6.1 15.6 0.00 0.00 0.00 90 1001.8
20260505113624 69 176 6.1 15.6 0.00 0.00 0.00 90 1001.8
20260505112703 69 178 6.1 13.0 0.00 0.00 0.00 90 1001.6
20260505111803 69 178 5.2 13.0 0.00 0.00 0.00 90 1001.7
20260505110903 69 180 6.1 13.9 0.00 0.00 0.00 90 1001.5
20260505101803 70 172 6.1 13.9 0.00 0.00 0.00 89 1001.7
20260505100925 70 181 6.1 12.2 0.00 0.00 0.00 89 1001.7
20260505100003 70 179 6.1 13.9 0.00 0.00 0.00 89 1001.9
20260505095404 70 180 6.1 13.9 0.00 0.00 0.00 88 1001.8
20260505094503 70 186 7.0 13.9 0.00 0.00 0.00 88 1001.8
20260505093603 70 182 7.0 13.9 0.00 0.00 0.00 88 1002.0
20260505092724 71 180 7.0 19.1 0.00 0.00 0.00 88 1001.9
20260505091803 71 183 8.7 15.6 0.00 0.00 0.00 87 1002.1
20260505090903 71 184 7.8 14.8 0.00 0.00 0.00 87 1002.1
20260505090004 71 184 7.0 14.8 0.00 0.00 0.00 88 1002.2
20260505085403 71 179 7.0 16.5 0.00 0.00 0.00 88 1002.2
20260505084504 70 185 7.0 15.6 0.00 0.00 0.00 88 1002.0
20260505083603 70 181 6.1 12.2 0.00 0.00 0.00 88 1002.0
20260505082704 70 175 7.8 20.0 0.00 0.00 0.00 88 1002.0
20260505081803 70 177 7.8 14.8 0.00 0.00 0.00 88 1002.2
20260505080903 70 177 7.0 13.0 0.00 0.00 0.00 88 1002.2
20260505080004 70 173 7.0 13.9 0.00 0.00 0.00 87 1002.2
20260505075403 70 171 7.0 14.8 0.00 0.00 0.00 87 1002.5
20260505074524 70 166 7.0 15.6 0.00 0.00 0.00 87 1002.5
20260505073603 71 174 7.0 15.6 0.00 0.00 0.00 86 1002.7
20260505072703 71 174 7.0 13.0 0.00 0.00 0.00 86 1002.8
20260505071804 71 170 6.1 13.9 0.00 0.00 0.00 86 1002.9
20260505070903 71 170 7.8 13.9 0.00 0.00 0.00 85 1003.1
20260505070004 71 173 7.0 20.0 0.00 0.00 0.00 85 1003.3
20260505065424 71 171 7.0 13.0 0.00 0.00 0.00 84 1003.2
20260505064503 72 173 7.0 16.5 0.00 0.00 0.00 84 1003.3
20260505063603 72 176 7.0 13.9 0.00 0.00 0.00 83 1003.6
20260505062704 72 171 7.0 13.0 0.00 0.00 0.00 83 1003.5
20260505061803 72 171 7.0 16.5 0.00 0.00 0.00 82 1003.6
20260505060903 72 167 7.0 13.9 0.00 0.00 0.00 82 1003.6
20260505060024 72 172 6.1 14.8 0.00 0.00 0.00 81 1003.6
20260505055424 72 169 6.1 14.8 0.00 0.00 0.00 81 1003.5
20260505054524 72 167 7.0 17.4 0.00 0.00 0.00 80 1003.6
20260505053603 73 167 6.1 14.8 0.00 0.00 0.00 79 1003.4
20260505052724 73 168 6.1 13.0 0.00 0.00 0.00 79 1003.6
20260505051803 73 169 7.0 17.4 0.00 0.00 0.00 78 1003.8
20260505050925 73 168 7.0 15.6 0.00 0.00 0.00 77 1003.8
20260505040903 74 171 7.0 13.9 0.00 0.00 0.00 75 1004.2
20260505040004 74 167 7.0 14.8 0.00 0.00 0.00 74 1004.1
20260505035403 75 171 7.0 20.9 0.00 0.00 0.00 74 1004.1
20260505034504 75 171 7.0 13.9 0.00 0.00 0.00 74 1004.3
20260505033603 75 168 6.1 17.4 0.00 0.00 0.00 74 1003.9
20260505032703 75 167 5.2 14.8 0.00 0.00 0.00 74 1003.9
20260505031803 75 170 7.0 15.6 0.00 0.00 0.00 74 1004.0
20260505030903 75 168 6.1 13.9 0.00 0.00 0.00 74 1004.1
20260505030004 75 170 5.2 13.0 0.00 0.00 0.00 74 1004.1
20260505025403 75 165 6.1 13.0 0.00 0.00 0.00 74 1004.1
20260505024503 75 167 6.1 13.0 0.00 0.00 0.00 74 1003.8
20260505023624 75 169 6.1 14.8 0.00 0.00 0.00 74 1003.7
20260505022703 75 164 5.2 12.2 0.00 0.00 0.00 73 1003.6
20260505021825 75 166 6.1 12.2 0.00 0.00 0.00 73 1003.6
20260505020903 75 165 5.2 9.6 0.00 0.00 0.00 73 1003.7
20260505020003 75 162 6.1 13.9 0.00 0.00 0.00 73 1003.5
20260505015403 75 160 6.1 13.9 0.00 0.00 0.00 73 1003.6
20260505014503 75 162 6.1 13.0 0.00 0.00 0.00 73 1003.5
20260505013625 75 160 5.2 11.3 0.00 0.00 0.00 73 1003.6
20260505012704 76 162 6.1 14.8 0.00 0.00 0.00 72 1003.6
20260505011804 76 164 5.2 10.4 0.00 0.00 0.00 72 1003.5
20260505010903 76 161 6.1 16.5 0.00 0.00 0.00 71 1003.4
20260505010004 76 163 6.1 15.6 0.00 0.00 0.00 71 1003.4
20260505005403 76 164 6.1 15.6 0.00 0.00 0.00 71 1003.4
20260505004503 76 164 6.1 13.9 0.00 0.00 0.00 71 1003.6
20260505003603 76 166 6.1 13.0 0.00 0.00 0.00 70 1003.7
20260505002704 77 163 6.1 14.8 0.00 0.00 0.00 70 1003.8
20260505001803 77 164 5.2 15.6 0.00 0.00 0.00 69 1003.9
20260505000903 77 159 6.1 15.6 0.00 0.00 0.00 69 1004.0
20260505000003 78 166 6.1 13.9 0.00 0.00 0.00 68 1003.9
20260504235403 78 167 5.2 13.9 0.00 0.00 0.00 68 1004.1
20260504234504 78 164 7.0 13.9 0.00 0.00 0.00 68 1004.1
20260504233603 78 161 7.0 15.6 0.00 0.00 0.00 67 1004.1
20260504232724 78 167 7.0 15.6 0.00 0.00 0.00 66 1004.2
20260504231803 79 166 7.0 17.4 0.00 0.00 0.00 67 1004.3
20260504230903 79 166 7.0 15.6 0.00 0.00 0.00 65 1004.5
20260504230003 79 165 7.0 15.6 0.00 0.00 0.00 66 1004.5
20260504225404 79 165 7.0 15.6 0.00 0.00 0.00 66 1004.5
20260504224503 79 165 7.8 21.7 0.00 0.00 0.00 64 1004.5
20260504223604 80 164 7.0 15.6 0.00 0.00 0.00 64 1004.6
20260504222703 80 166 7.0 19.1 0.00 0.00 0.00 63 1004.7
20260504221824 80 164 7.0 18.2 0.00 0.00 0.00 63 1004.8
20260504220903 80 165 6.1 14.8 0.00 0.00 0.00 63 1004.8
20260504220004 80 173 7.0 14.8 0.00 0.00 0.00 62 1004.8
20260504215403 80 167 7.8 20.9 0.00 0.00 0.00 62 1004.8
20260504214503 81 169 7.8 18.2 0.00 0.00 0.00 61 1005.1
20260504213624 81 164 7.8 18.2 0.00 0.00 0.00 61 1005.1
20260504212703 81 166 7.8 18.2 0.00 0.00 0.00 61 1005.2
20260504211803 81 168 8.7 19.1 0.00 0.00 0.00 61 1005.4
20260504210903 82 165 7.0 19.1 0.00 0.00 0.00 60 1005.5
20260504210004 82 169 7.0 15.6 0.00 0.00 0.00 61 1005.8
20260504205404 81 164 8.7 19.1 0.00 0.00 0.00 61 1005.7
20260504204503 82 166 7.8 23.5 0.00 0.00 0.00 60 1005.8
20260504203603 82 171 7.0 16.5 0.00 0.00 0.00 60 1006.1
20260504202703 82 168 7.0 16.5 0.00 0.00 0.00 60 1006.2
20260504201803 81 167 7.8 16.5 0.00 0.00 0.00 61 1006.6
20260504200903 82 168 7.8 17.4 0.00 0.00 0.00 59 1006.6
20260504200003 82 169 7.8 17.4 0.00 0.00 0.00 61 1006.9
20260504195403 82 168 7.0 17.4 0.00 0.00 0.00 60 1007.0
20260504194503 81 171 7.0 14.8 0.00 0.00 0.00 62 1007.3
20260504193603 80 164 8.7 18.2 0.00 0.00 0.00 61 1007.5
20260504192725 80 169 7.0 19.1 0.00 0.00 0.00 61 1007.6
20260504191803 80 164 7.8 17.4 0.00 0.00 0.00 63 1007.5
20260504190903 80 166 7.0 17.4 0.00 0.00 0.00 62 1007.7
20260504190003 80 163 7.8 16.5 0.00 0.00 0.00 62 1007.9
20260504185403 80 167 6.1 16.5 0.00 0.00 0.00 61 1008.0
20260504184524 79 167 7.0 15.6 0.00 0.00 0.00 63 1008.0
20260504183624 79 164 7.8 20.0 0.00 0.00 0.00 62 1008.2
20260504182703 78 166 7.8 20.0 0.00 0.00 0.00 63 1008.3
20260504181803 78 170 7.8 18.2 0.00 0.00 0.00 62 1008.7